Time,TemperatureF,DewpointF,PressureIn,WindDirection,WindDirectionDegrees,WindSpeedMPH,WindSpeedGustMPH,Humidity,HourlyPrecipIn,Conditions,Clouds,dailyrainin,SoftwareType,DateUTC
2013-03-07 00:19:00,37.4,26.7,29.95,NE,45,1.7,-999.0,65,-99.99,,,0.00,Acu-Link.com,2013-03-07 05:19:00,
2013-03-07 00:34:00,37.0,26.0,29.94,ENE,67,3.2,-999.0,64,-99.99,,,0.00,Acu-Link.com,2013-03-07 05:34:00,
2013-03-07 01:27:00,37.0,25.6,29.94,NE,45,2.7,-999.0,63,-99.99,,,0.00,Acu-Link.com,2013-03-07 06:27:00,
2013-03-07 02:33:00,36.9,25.5,29.94,North,0,4.7,-999.0,63,-99.99,,,0.00,Acu-Link.com,2013-03-07 07:33:00,
2013-03-07 02:55:00,36.7,24.9,29.95,North,0,0.0,-999.0,62,-99.99,,,0.00,Acu-Link.com,2013-03-07 07:55:00,
2013-03-07 03:10:00,36.7,24.1,29.95,NE,45,4.2,-999.0,60,-99.99,,,0.00,Acu-Link.com,2013-03-07 08:10:00,
2013-03-07 03:32:00,36.7,24.1,29.95,North,0,9.9,-999.0,60,-99.99,,,0.00,Acu-Link.com,2013-03-07 08:32:00,
2013-03-07 03:54:00,36.7,24.1,29.95,North,0,8.3,-999.0,60,-99.99,,,0.00,Acu-Link.com,2013-03-07 08:54:00,
2013-03-07 04:31:00,36.3,24.2,29.96,North,0,7.8,-999.0,61,-99.99,,,0.00,Acu-Link.com,2013-03-07 09:31:00,
2013-03-07 05:10:00,36.3,24.2,29.95,NNE,22,6.3,-999.0,61,-99.99,,,0.00,Acu-Link.com,2013-03-07 10:10:00,
2013-03-07 05:26:00,36.3,24.2,29.97,NE,45,2.7,-999.0,61,-99.99,,,0.00,Acu-Link.com,2013-03-07 10:26:00,
2013-03-07 05:42:00,34.3,23.4,29.95,WNW,292,2.2,-999.0,64,-99.99,,,0.00,Acu-Link.com,2013-03-07 10:42:00,
2013-03-07 05:57:00,34.0,23.1,29.95,NNE,22,3.2,-999.0,64,-99.99,,,0.00,Acu-Link.com,2013-03-07 10:57:00,
2013-03-07 06:12:00,33.4,23.3,29.97,NNW,337,2.2,-999.0,66,-99.99,,,0.00,Acu-Link.com,2013-03-07 11:12:00,
2013-03-07 06:28:00,33.6,23.5,29.96,NNW,337,6.3,-999.0,66,-99.99,,,0.00,Acu-Link.com,2013-03-07 11:28:00,
2013-03-07 06:43:00,34.2,24.0,29.97,NNE,22,2.7,-999.0,66,-99.99,,,0.00,Acu-Link.com,2013-03-07 11:43:00,
2013-03-07 06:59:00,34.5,24.3,29.96,East,90,1.7,-999.0,66,-99.99,,,0.00,Acu-Link.com,2013-03-07 11:59:00,
2013-03-07 07:15:00,34.5,24.0,29.98,NW,315,2.2,-999.0,65,-99.99,,,0.00,Acu-Link.com,2013-03-07 12:15:00,
2013-03-07 07:37:00,34.9,24.3,29.99,North,0,2.7,-999.0,65,-99.99,,,0.00,Acu-Link.com,2013-03-07 12:37:00,
2013-03-07 07:52:00,37.4,24.8,30.00,NE,45,5.8,-999.0,60,-99.99,,,0.00,Acu-Link.com,2013-03-07 12:52:00,
2013-03-07 08:08:00,37.6,24.2,29.99,ENE,67,3.2,-999.0,58,-99.99,,,0.00,Acu-Link.com,2013-03-07 13:08:00,
2013-03-07 08:23:00,38.5,24.2,29.99,ENE,67,6.3,-999.0,56,-99.99,,,0.00,Acu-Link.com,2013-03-07 13:23:00,
2013-03-07 08:38:00,37.8,24.0,30.00,ENE,67,1.7,-999.0,57,-99.99,,,0.00,Acu-Link.com,2013-03-07 13:38:00,
2013-03-07 08:54:00,38.8,24.5,30.00,NW,315,2.7,-999.0,56,-99.99,,,0.00,Acu-Link.com,2013-03-07 13:54:00,
2013-03-07 09:09:00,39.0,24.2,30.02,NNW,337,2.7,-999.0,55,-99.99,,,0.00,Acu-Link.com,2013-03-07 14:09:00,
2013-03-07 09:24:00,39.4,23.7,30.01,NNE,22,5.8,-999.0,53,-99.99,,,0.00,Acu-Link.com,2013-03-07 14:24:00,
2013-03-07 09:40:00,39.4,23.7,30.02,NE,45,9.4,-999.0,53,-99.99,,,0.00,Acu-Link.com,2013-03-07 14:40:00,
2013-03-07 09:55:00,39.2,23.5,30.03,NNE,22,6.8,-999.0,53,-99.99,,,0.00,Acu-Link.com,2013-03-07 14:55:00,
2013-03-07 10:10:00,39.9,23.7,30.03,NNE,22,6.3,-999.0,52,-99.99,,,0.00,Acu-Link.com,2013-03-07 15:10:00,
2013-03-07 10:25:00,40.3,23.6,30.02,NNW,337,4.2,-999.0,51,-99.99,,,0.00,Acu-Link.com,2013-03-07 15:25:00,
2013-03-07 10:41:00,40.8,23.6,30.02,NE,45,5.8,-999.0,50,-99.99,,,0.00,Acu-Link.com,2013-03-07 15:41:00,
2013-03-07 10:56:00,41.5,24.3,30.03,ENE,67,10.4,-999.0,50,-99.99,,,0.00,Acu-Link.com,2013-03-07 15:56:00,
2013-03-07 11:11:00,41.7,24.0,30.02,NE,45,13.5,-999.0,49,-99.99,,,0.00,Acu-Link.com,2013-03-07 16:11:00,
2013-03-07 11:26:00,41.7,23.5,30.03,NNE,22,7.8,-999.0,48,-99.99,,,0.00,Acu-Link.com,2013-03-07 16:26:00,
2013-03-07 11:41:00,42.6,24.3,30.02,ENE,67,5.3,-999.0,48,-99.99,,,0.00,Acu-Link.com,2013-03-07 16:41:00,
2013-03-07 11:56:00,42.4,24.6,30.02,NNE,22,3.7,-999.0,49,-99.99,,,0.00,Acu-Link.com,2013-03-07 16:56:00,
2013-03-07 12:12:00,42.4,23.6,30.01,NE,45,8.9,-999.0,47,-99.99,,,0.00,Acu-Link.com,2013-03-07 17:12:00,
2013-03-07 12:28:00,42.8,24.0,30.02,ESE,112,6.3,-999.0,47,-99.99,,,0.00,Acu-Link.com,2013-03-07 17:28:00,
2013-03-07 12:43:00,42.8,24.0,30.00,ESE,112,5.3,-999.0,47,-99.99,,,0.00,Acu-Link.com,2013-03-07 17:43:00,
2013-03-07 12:58:00,42.6,23.8,30.00,NE,45,6.3,-999.0,47,-99.99,,,0.00,Acu-Link.com,2013-03-07 17:58:00,
2013-03-07 13:13:00,43.5,24.1,30.00,NNW,337,6.3,-999.0,46,-99.99,,,0.00,Acu-Link.com,2013-03-07 18:13:00,
2013-03-07 13:28:00,43.5,24.6,30.00,ENE,67,8.9,-999.0,47,-99.99,,,0.00,Acu-Link.com,2013-03-07 18:28:00,
2013-03-07 13:43:00,43.3,23.9,30.00,WNW,292,5.3,-999.0,46,-99.99,,,0.00,Acu-Link.com,2013-03-07 18:43:00,
2013-03-07 14:01:00,43.5,24.6,30.01,ESE,112,6.3,-999.0,47,-99.99,,,0.00,Acu-Link.com,2013-03-07 19:01:00,
2013-03-07 14:16:00,43.7,24.3,30.00,NNW,337,7.3,-999.0,46,-99.99,,,0.00,Acu-Link.com,2013-03-07 19:16:00,
2013-03-07 14:31:00,42.6,23.8,29.99,East,90,4.7,-999.0,47,-99.99,,,0.00,Acu-Link.com,2013-03-07 19:31:00,
2013-03-07 14:46:00,43.5,24.1,30.02,East,90,5.8,-999.0,46,-99.99,,,0.00,Acu-Link.com,2013-03-07 19:46:00,
2013-03-07 15:14:00,43.2,23.8,30.01,NNW,337,4.7,-999.0,46,-99.99,,,0.00,Acu-Link.com,2013-03-07 20:14:00,
2013-03-07 15:32:00,44.1,24.1,30.01,NNW,337,10.9,-999.0,45,-99.99,,,0.00,Acu-Link.com,2013-03-07 20:32:00,
2013-03-07 15:48:00,43.0,23.7,29.99,ENE,67,6.3,-999.0,46,-99.99,,,0.00,Acu-Link.com,2013-03-07 20:48:00,
2013-03-07 16:04:00,43.7,24.8,30.01,ENE,67,5.8,-999.0,47,-99.99,,,0.00,Acu-Link.com,2013-03-07 21:04:00,
2013-03-07 16:30:00,43.3,24.4,30.00,NNW,337,11.4,-999.0,47,-99.99,,,0.00,Acu-Link.com,2013-03-07 21:30:00,
2013-03-07 16:46:00,42.6,24.8,30.00,NNE,22,3.2,-999.0,49,-99.99,,,0.00,Acu-Link.com,2013-03-07 21:46:00,
2013-03-07 17:07:00,43.0,24.7,30.02,NNE,22,7.3,-999.0,48,-99.99,,,0.00,Acu-Link.com,2013-03-07 22:07:00,
2013-03-07 17:29:00,43.0,24.7,30.01,NNW,337,8.9,-999.0,48,-99.99,,,0.00,Acu-Link.com,2013-03-07 22:29:00,
2013-03-07 17:47:00,40.8,24.6,30.03,NNE,22,4.7,-999.0,52,-99.99,,,0.00,Acu-Link.com,2013-03-07 22:47:00,
2013-03-07 18:02:00,40.1,24.8,30.02,NE,45,4.2,-999.0,54,-99.99,,,0.00,Acu-Link.com,2013-03-07 23:02:00,
2013-03-07 18:17:00,39.6,25.2,30.02,NNE,22,2.7,-999.0,56,-99.99,,,0.00,Acu-Link.com,2013-03-07 23:17:00,
2013-03-07 18:32:00,39.6,26.1,30.05,NNE,22,5.8,-999.0,58,-99.99,,,0.00,Acu-Link.com,2013-03-07 23:32:00,
2013-03-07 18:47:00,39.2,26.1,30.04,NE,45,6.3,-999.0,59,-99.99,,,0.00,Acu-Link.com,2013-03-07 23:47:00,
2013-03-07 19:02:00,38.8,26.1,30.05,NNE,22,5.3,-999.0,60,-99.99,,,0.00,Acu-Link.com,2013-03-08 00:02:00,
2013-03-07 19:17:00,38.5,26.6,30.07,NE,45,4.7,-999.0,62,-99.99,,,0.00,Acu-Link.com,2013-03-08 00:17:00,
2013-03-07 19:33:00,38.1,27.0,30.06,NE,45,4.7,-999.0,64,-99.99,,,0.00,Acu-Link.com,2013-03-08 00:33:00,
2013-03-07 19:48:00,37.9,26.8,30.06,ENE,67,5.3,-999.0,64,-99.99,,,0.00,Acu-Link.com,2013-03-08 00:48:00,
2013-03-07 20:03:00,37.9,26.8,30.07,East,90,2.2,-999.0,64,-99.99,,,0.00,Acu-Link.com,2013-03-08 01:03:00,
2013-03-07 20:18:00,37.8,26.7,30.07,NNE,22,2.2,-999.0,64,-99.99,,,0.00,Acu-Link.com,2013-03-08 01:18:00,
2013-03-07 20:34:00,37.4,26.0,30.08,NNE,22,6.3,-999.0,63,-99.99,,,0.00,Acu-Link.com,2013-03-08 01:34:00,
2013-03-07 20:49:00,37.4,25.6,30.07,ENE,67,5.8,-999.0,62,-99.99,,,0.00,Acu-Link.com,2013-03-08 01:49:00,
2013-03-07 21:04:00,37.2,24.2,30.08,NE,45,3.7,-999.0,59,-99.99,,,0.00,Acu-Link.com,2013-03-08 02:04:00,
2013-03-07 21:19:00,36.3,23.8,30.08,NE,45,8.9,-999.0,60,-99.99,,,0.00,Acu-Link.com,2013-03-08 02:19:00,
2013-03-07 21:34:00,35.8,22.9,30.09,ESE,112,6.8,-999.0,59,-99.99,,,0.00,Acu-Link.com,2013-03-08 02:34:00,
2013-03-07 21:50:00,35.2,22.7,30.08,NE,45,4.2,-999.0,60,-99.99,,,0.00,Acu-Link.com,2013-03-08 02:50:00,
2013-03-07 22:05:00,34.9,22.0,30.08,NW,315,2.7,-999.0,59,-99.99,,,0.00,Acu-Link.com,2013-03-08 03:05:00,
2013-03-07 22:20:00,34.2,21.8,30.08,NE,45,5.3,-999.0,60,-99.99,,,0.00,Acu-Link.com,2013-03-08 03:20:00,
2013-03-07 22:35:00,33.4,21.8,30.09,NNE,22,11.4,-999.0,62,-99.99,,,0.00,Acu-Link.com,2013-03-08 03:35:00,
2013-03-07 22:51:00,33.1,21.9,30.09,North,0,4.2,-999.0,63,-99.99,,,0.00,Acu-Link.com,2013-03-08 03:51:00,
2013-03-07 23:06:00,33.3,22.1,30.09,ENE,67,4.2,-999.0,63,-99.99,,,0.00,Acu-Link.com,2013-03-08 04:06:00,
2013-03-07 23:36:00,32.0,21.2,30.07,ENE,67,2.2,-999.0,64,-99.99,,,0.00,Acu-Link.com,2013-03-08 04:36:00,
2013-03-07 23:51:00,32.0,21.2,30.08,WNW,292,3.2,-999.0,64,-99.99,,,0.00,Acu-Link.com,2013-03-08 04:51:00,